Printer-friendly version

IAU Minor Planet Center

Minor Planet Center

MPEC 2008-L53 : 2008 LN16

The following Minor Planet Electronic Circular may be linked-to from your own Web pages, but must not otherwise be redistributed electronically.


Read MPEC 2008-L52 Read MPEC 2008-L54


M.P.E.C. 2008-L53                                Issued 2008 June 14, 15:21 UT

     The Minor Planet Electronic Circulars contain information on unusual
         minor planets and routine data on comets.  They are published
   on behalf of Commission 20 of the International Astronomical Union by the
          Minor Planet Center, Smithsonian Astrophysical Observatory,
                          Cambridge, MA 02138, U.S.A.

             Prepared using the Tamkin Foundation Computer Network

                              MPC@CFA.HARVARD.EDU
          URL http://www.cfa.harvard.edu/iau/mpc.html  ISSN 1523-6714

                                   2008 LN16

Observations:
     K08L16N* C2008 06 10.58220 19 55 41.05 -45 38 23.7          19.4 V EL053E12
     K08L16N  C2008 06 10.59090 19 55 42.85 -45 38 35.9          19.4 V EL053E12
     K08L16N  C2008 06 10.59960 19 55 44.50 -45 38 48.5          19.0 V EL053E12
     K08L16N  C2008 06 10.60830 19 55 46.16 -45 39 00.4          19.2 V EL053E12
     K08L16N  C2008 06 10.65079 19 55 54.37 -45 40 00.4          19.5 V EL053E12
     K08L16N  C2008 06 10.69593 19 56 03.04 -45 41 02.8          19.3 V EL053E12
     K08L16N  C2008 06 10.69656 19 56 03.17 -45 41 03.7          19.5 V EL053E12
     K08L16N  C2008 06 10.69721 19 56 03.25 -45 41 04.8          19.4 V EL053E12
     K08L16N  C2008 06 10.69786 19 56 03.44 -45 41 05.8          19.5 V EL053E12
     K08L16N  C2008 06 10.69850 19 56 03.50 -45 41 06.0          19.3 V EL053E12
     K08L16N  C2008 06 10.74034 19 56 11.61 -45 42 03.6          19.2 V EL053E12
     K08L16N  C2008 06 10.75455 19 56 14.31 -45 42 22.9          19.3 V EL053E12
     K08L16N  C2008 06 10.76866 19 56 17.01 -45 42 41.1          19.6 V EL053E12
     K08L16N  C2008 06 14.56066 20 09 33.33 -47 06 54.3          18.8 V EL053E12
     K08L16N  C2008 06 14.56331 20 09 33.94 -47 06 59.1          19.3 V EL053E12
     K08L16N  C2008 06 14.56596 20 09 34.48 -47 07 02.8          18.7 V EL053E12
     K08L16N  C2008 06 14.56863 20 09 34.92 -47 07 06.2          19.1 V EL053E12
     K08L16N  C2008 06 14.57130 20 09 35.49 -47 07 09.5          19.4 V EL053E12
     K08L16N  C2008 06 14.59194 20 09 39.70 -47 07 38.3          19.0 V EL053E12
     K08L16N  C2008 06 14.59387 20 09 39.96 -47 07 39.6          19.1 V EL053E12
     K08L16N  C2008 06 14.59581 20 09 40.46 -47 07 42.4          19.3 V EL053E12
     K08L16N  C2008 06 14.59772 20 09 40.78 -47 07 45.9          19.4 V EL053E12
     K08L16N  C2008 06 14.59965 20 09 41.25 -47 07 47.1          19.7 V EL053E12

Observer details:
E12 Siding Spring Survey.  Observer G. J. Garradd.  Measurers E. C. Beshore,
    A. Boattini, G. J. Garradd, A. R. Gibbs, A. D. Grauer, R. E. Hill,
    R. A. Kowalski, S. M. Larson, R. H. McNaught.  0.5-m Uppsala Schmidt + CCD.

Orbital elements:
2008 LN16                                                Earth MOID = 0.2675 AU
Epoch 2008 May 14.0 TT = JDT 2454600.5                  MPC
M 339.88606              (2000.0)            P               Q
n   0.31047238     Peri.  262.35245     +0.46916985     +0.87945632
a   2.1600016      Node    35.98242     -0.74683341     +0.44361258
e   0.4276299      Incl.    7.84805     -0.47129556     +0.17252379
P   3.17           H   19.9           G   0.15           U   9
Residuals in seconds of arc
080610 E12  0.5-  0.5-    080610 E12  0.3+  0.0     080614 E12  0.4-  0.4-
080610 E12  0.6+  0.2-    080610 E12  0.4-  0.7+    080614 E12  0.1-  0.0
080610 E12  0.2+  0.3-    080610 E12  0.4+  0.3-    080614 E12  0.3+  0.7-
080610 E12  0.1-  0.2+    080610 E12  0.0   0.5-    080614 E12  1.0-  0.6+
080610 E12  0.0   0.2+    080610 E12  0.3-  0.0     080614 E12  0.1+  0.5+
080610 E12  0.0   0.3+    080614 E12  0.1-  0.6+    080614 E12  0.5-  0.4-
080610 E12  0.1+  0.3+    080614 E12  0.6+  0.6-    080614 E12  0.3+  1.0+
080610 E12  0.4-  0.1+    080614 E12  0.7+  0.6-

Ephemeris:
2008 LN16                a,e,i = 2.16, 0.43, 8                   q = 1.2363
Date    TT    R. A. (2000) Decl.     Delta      r     Elong.  Phase     V
2008 06 13    20 04.03   -46 32.8    0.326    1.285   140.7    30.0    19.3
2008 06 23    20 40.25   -49 51.6    0.299    1.261   140.3    31.0    19.1
2008 07 03    21 16.74   -52 06.2    0.283    1.245   139.5    32.0    19.0
2008 07 13    21 49.17   -52 56.4    0.274    1.237   139.1    32.5    18.9
2008 07 23    22 13.70   -52 19.3    0.273    1.237   139.9    31.9    18.9
2008 08 02    22 28.52   -50 23.1    0.278    1.246   141.9    30.2    18.9
2008 08 12    22 34.93   -47 15.6    0.291    1.262   144.8    27.6    19.0
2008 08 22    22 36.15   -43 09.7    0.311    1.286   147.9    24.7    19.1
2008 09 01    22 35.33   -38 24.3    0.342    1.316   149.8    22.7    19.2
2008 09 11    22 35.10   -33 21.1    0.385    1.352   149.5    22.2    19.5
2008 09 21    22 36.85   -28 22.5    0.440    1.393   146.8    23.2    19.9
2008 10 01    22 40.99   -23 43.0    0.510    1.439   142.3    25.2    20.4
2008 10 11    22 47.53   -19 28.1    0.593    1.487   136.8    27.4    20.9
2008 10 21    22 56.17   -15 38.8    0.689    1.538   130.9    29.3    21.3
2008 10 31    23 06.52   -12 11.9    0.798    1.591   124.9    30.8    21.7

Timothy B. Spahr             (C) Copyright 2008 MPC           M.P.E.C. 2008-L53

Read MPEC 2008-L52 Read MPEC 2008-L54


Our Web policy. Index to the CBAT/MPC/ICQ pages.


Valid HTML 4.01!